Погода в Берт-Даге

Россия / Республика Тыва     50°37′31″N   94°47′31″E
темп.,
°C
ветер,
м/с
пор.,
м/с
влажн.,
%
обл.,
%
осадки,
мм/ч
давл.,
гПа
погр.,
м
23 апреля, пт
пт2301:00−6ссв61065100 0.0 1030378
04:00−7ссв71076100 0.0 1031385
07:00−7ссв6880100 0.0 1032344
10:00−6ссв5679100 1.0 1033486
13:00−4ссв4480100 1.4 1031556
16:00−4ссв4479100 0.4 1030579
19:00−5ссв4584100 0.8 1031276
22:00−6ссв4589100 0.2 1031150
24 апреля, сб
сб2401:00−6ссв4589100 0.3 1030149
04:00−6ссв3488100 0.2 1028169
07:00−5ссв2286100 0.4 1027243
10:00−3юз2186100 0.4 1025501
13:00−2юз448289 1.3 1023777
16:000юз565763 0.3 10221376
19:00−1юз22560 0.3 1022145
22:00−4св226866 0.0 102515
25 апреля, вс
вс2501:00−4ссв4688100 0.0 1024200
04:00−5ссв6991100 0.1 1024322
07:00−5ссв71185100 0.6 1024514
10:00−4с71080100 1.3 1024662
13:00−4с71178100 2.3 1024897
16:00−2с81261100 0.3 10221220
19:00−4с81468100 0.3 1024943
22:00−6с587418 0.0 1028213
26 апреля, пн
пн2601:00−8с447257 0.0 103049
04:00−9с336963 0.0 103137
07:00−7ссв347191 0.0 1031286
10:00−4с346299 0.1 10291271
13:00−2ссв3452100 0.3 10271557
16:00−1с344793 0.1 10261555
19:00−2с235720 0.1 1027447
22:00−4с216896 0.0 103014
27 апреля, вт
вт2701:00−5ссв116742 0.0 102911
04:00−5ю116855 0.0 103010
07:00−3ююз12634 0.0 1030148
10:000юз44505 0.0 10281033
13:00+1юз444548 0.0 10251399
16:00+3зюз56416 0.0 10231384
19:00+1зюз3748100 0.0 1023664
22:000зюз1155100 0.0 102414